Theta_e
311 316 318 317 313 315 316 318 320 318 317 317 317 317 316 314 316 317 318 319 316 315 315 315 317 317 319 321 323 325 330 332 334 332 327 321 320 320 321 320 315 313 308 305
312 314 313 312 313 315 315 316 316 314 313 315 315 316 314 313 314 315 317 318 318 316 313 313 315 317 319 321 322 323 329 330 329 328 324 321 316 315 314 311 306 303 302 303
312 311 310 312 311 313 313 313 312 312 312 312 313 313 310 309 311 311 312 314 316 317 315 312 312 317 320 322 323 322 327 328 326 326 321 316 311 306 303 301 300 300 301 302
313 311 311 311 312 311 313 311 313 314 314 314 311 315 311 310 309 309 310 313 315 316 313 313 312 316 320 323 324 323 323 324 324 323 319 319 309 302 299 299 299 299 299 299
314 312 312 314 312 310 312 311 313 314 315 315 314 315 310 309 311 311 313 314 315 316 315 313 313 317 320 323 325 323 321 321 320 319 318 314 307 304 299 298 298 298 297 297
312 309 311 310 310 310 312 312 313 314 316 317 313 314 312 309 309 308 309 311 314 315 312 313 314 317 320 322 323 320 319 318 317 317 315 315 311 301 298 297 297 296 296 295
315 314 312 312 312 311 312 316 317 317 318 315 311 314 313 308 308 308 309 311 314 314 312 313 315 316 315 318 318 317 317 314 314 314 311 312 310 305 300 298 297 296 295 294
313 311 312 312 312 312 313 314 316 318 312 310 309 312 312 310 310 310 310 312 312 312 311 314 316 317 315 315 315 314 314 312 312 312 311 310 307 302 300 299 297 296 295 294
315 311 311 312 311 312 315 316 312 317 316 318 314 311 311 312 309 311 310 309 310 311 312 314 316 316 314 313 313 314 313 312 311 310 308 304 303 301 298 297 296 295 293 292
310 313 309 310 311 312 314 312 315 315 317 318 311 310 313 313 314 314 313 311 310 311 312 313 315 313 311 311 311 312 313 310 308 305 304 302 300 299 297 295 295 293 292 291
310 312 310 312 314 313 316 316 316 315 316 311 311 309 311 315 314 317 315 313 311 312 313 314 312 308 305 305 307 307 307 306 303 302 300 298 296 295 295 294 293 292 291 289
310 313 313 310 311 311 311 312 313 314 310 311 309 311 313 315 316 316 316 312 311 311 313 312 308 304 303 301 302 302 301 301 300 299 297 296 294 294 294 292 291 290 290 288
310 314 314 313 312 312 313 313 312 312 312 310 310 310 306 309 314 316 315 314 312 311 309 306 304 303 300 298 297 297 297 298 297 296 295 293 293 293 292 291 290 289 288 288
310 315 314 315 315 312 314 313 313 313 315 312 311 311 310 310 316 317 316 316 314 311 309 307 305 302 299 297 295 294 294 295 295 294 293 293 292 292 291 290 289 288 288 287
312 314 313 314 314 312 314 314 315 314 312 312 310 310 309 315 315 316 314 317 315 314 310 307 304 300 297 295 293 293 293 293 294 293 293 292 291 291 290 289 288 287 287 287
314 313 314 315 314 316 315 316 315 313 312 312 312 312 312 314 315 316 316 316 317 313 311 307 303 299 296 294 292 291 292 292 293 293 291 291 290 290 289 288 287 286 286 287
315 313 317 319 317 317 321 316 316 314 313 312 314 312 311 312 316 315 313 312 314 313 311 307 303 300 296 294 292 291 292 292 292 292 291 290 290 289 288 287 286 286 286 286
316 315 316 320 322 328 322 321 315 315 314 313 312 314 317 317 314 311 308 311 311 312 310 307 303 298 295 293 293 293 292 292 292 291 290 289 289 288 286 286 286 286 286 285
314 317 321 324 323 323 318 322 318 317 317 313 313 314 315 314 310 310 308 310 310 309 309 305 302 298 294 293 293 292 291 291 291 290 289 289 288 287 286 285 286 286 285 285
313 314 319 321 323 324 316 311 318 318 325 318 317 317 317 313 317 313 307 307 307 307 304 301 297 295 293 291 292 291 290 290 290 289 288 288 287 286 285 286 286 285 284 284
319 319 321 323 321 317 314 311 317 324 319 310 316 317 314 315 310 303 301 299 299 300 298 296 295 293 290 291 292 289 289 289 289 288 287 286 286 285 285 285 285 284 284 283
317 319 321 320 320 316 311 312 315 311 308 310 310 313 314 305 301 300 298 298 297 295 294 292 291 289 289 291 292 288 289 288 288 287 286 285 285 285 285 285 284 284 283 282
318 315 316 315 314 310 311 311 310 307 308 308 307 306 304 301 299 297 295 294 292 292 290 290 289 288 289 291 292 288 286 287 286 286 285 284 285 285 285 284 284 283 282 281
314 312 317 317 315 313 311 309 308 306 305 302 303 302 302 299 296 294 293 292 291 290 289 289 288 287 286 289 289 288 286 286 286 285 284 285 285 285 284 283 283 282 282 281
312 313 315 314 312 310 309 308 305 303 302 302 301 301 299 297 296 294 292 291 290 289 289 289 287 285 284 287 286 286 286 286 285 284 284 284 284 284 283 283 282 282 281 282
309 315 317 317 313 312 310 305 303 304 302 302 301 300 299 298 296 294 292 290 289 288 287 286 285 284 284 285 285 285 285 286 284 284 284 284 284 283 283 282 282 281 281 281
Wind_Speed
2 5 7 10 7 3 1 5 11 6 8 8 13 18 17 11 10 12 14 14 10 10 12 17 16 15 16 16 13 13 20 26 33 34 32 29 31 28 25 22 19 17 16 14
1 10 7 5 5 7 8 10 13 13 13 11 12 24 18 16 18 16 14 16 12 10 6 8 10 14 18 18 17 17 23 30 34 35 32 31 33 28 26 22 19 18 17 15
7 3 7 10 5 7 9 10 8 12 8 13 14 28 19 21 23 22 20 20 17 13 12 8 8 19 19 18 20 21 25 32 33 34 33 34 27 29 27 24 22 18 16 14
9 11 7 5 6 8 14 8 13 13 6 7 3 10 8 9 16 12 17 15 15 13 9 8 8 11 23 23 19 21 26 31 32 36 39 43 33 26 22 29 24 20 15 13
6 5 7 15 16 7 5 6 9 10 8 8 9 6 5 5 8 8 9 11 13 14 15 12 12 21 25 22 22 22 26 30 33 37 40 38 30 21 32 28 25 19 16 12
11 4 4 6 8 11 3 5 4 3 7 10 13 10 15 8 13 8 16 14 14 14 13 12 12 19 22 21 23 25 28 30 33 35 36 36 35 35 33 27 24 20 16 12
4 15 4 3 4 7 10 2 2 5 6 8 7 11 23 5 8 9 13 12 11 10 9 10 12 12 20 26 28 29 31 31 32 32 33 29 30 35 34 30 25 20 15 12
4 5 12 11 14 7 15 11 5 4 4 4 6 8 8 11 19 21 18 11 7 7 8 12 14 14 22 25 30 29 32 33 29 29 27 28 31 32 29 24 20 16 13 10
3 4 2 7 8 8 5 10 13 6 4 4 5 8 9 11 9 11 13 14 14 8 8 11 12 16 23 25 28 33 33 32 28 27 27 28 29 29 26 21 17 16 12 10
2 6 6 4 8 9 7 1 3 5 4 4 6 7 11 10 11 12 13 10 10 8 10 10 10 12 17 24 30 32 33 32 29 28 30 30 29 26 23 20 17 14 12 9
5 4 1 5 10 12 8 5 6 2 4 4 4 6 5 7 3 14 19 13 10 13 14 13 12 14 19 23 29 32 32 33 31 31 30 30 27 25 22 19 16 13 10 7
9 3 6 14 5 14 14 10 15 6 5 4 4 13 5 2 7 14 19 10 5 8 10 11 12 17 22 23 26 29 32 34 32 31 30 28 26 23 21 18 15 11 9 7
10 5 4 4 1 6 10 16 18 15 1 10 5 8 9 2 12 11 11 6 5 7 8 11 12 12 15 20 24 26 31 34 32 32 30 27 25 22 19 16 13 10 8 5
12 4 9 12 13 4 7 16 17 16 9 19 21 15 19 13 12 11 12 2 3 6 8 9 11 12 17 19 23 26 30 34 33 31 29 26 23 20 17 15 12 9 6 4
8 8 13 22 22 13 11 13 15 19 22 11 16 21 16 6 8 7 11 5 6 10 9 10 11 11 14 20 23 27 32 33 32 30 27 24 21 19 17 14 11 8 5 4
4 6 7 19 18 18 16 15 17 24 21 21 22 24 5 4 7 11 15 8 10 9 10 9 11 12 12 20 22 26 31 32 30 28 25 23 21 18 15 12 10 7 4 4
4 3 3 8 6 5 3 16 19 16 21 19 18 23 13 17 12 15 11 9 9 9 12 13 13 12 17 21 28 28 33 31 28 27 24 22 19 17 13 11 8 5 3 5
5 3 3 5 7 3 5 5 15 19 13 18 20 11 8 11 7 8 9 10 9 10 11 10 10 14 19 26 28 32 32 29 27 25 23 20 18 15 12 9 6 4 4 7
13 4 4 3 5 5 6 1 4 8 10 17 20 19 15 1 7 7 4 4 8 9 10 9 16 20 25 29 32 33 30 28 26 24 21 19 16 14 11 8 5 3 6 8
3 2 3 3 4 4 3 5 5 5 4 13 14 15 7 4 3 3 8 5 8 12 16 17 21 25 27 27 33 32 28 27 25 23 20 17 14 12 9 6 4 5 6 8
3 3 7 4 3 7 4 3 5 2 3 6 12 15 6 4 1 2 5 9 7 10 16 22 21 20 25 31 33 27 28 25 24 22 19 16 13 11 8 5 4 5 8 11
6 4 3 2 2 4 3 3 1 3 3 3 3 6 7 7 7 7 8 8 8 10 14 19 22 21 24 30 33 27 25 25 24 22 19 16 12 9 6 4 5 7 9 11
3 5 3 6 5 3 3 4 5 2 3 3 3 1 8 8 5 8 5 7 7 9 16 19 23 24 25 27 32 29 26 26 24 21 17 14 11 7 5 5 6 8 10 12
3 3 2 3 3 5 4 4 0 4 3 3 3 6 6 11 10 10 8 8 9 11 15 21 24 21 21 25 26 30 27 24 21 19 15 12 8 5 4 5 7 9 12 13
4 4 3 5 7 5 5 2 4 5 6 8 10 9 11 16 12 10 10 10 10 15 17 20 22 21 23 28 28 26 24 21 19 17 13 9 6 3 4 6 7 11 11 11
5 6 4 4 3 2 1 5 6 6 6 7 14 13 9 10 13 12 10 10 14 16 20 22 23 27 27 29 25 21 18 16 17 15 10 7 4 3 6 9 10 9 10 11
Wind_Direction
198 207 210 203 212 284 38 272 270 275 300 309 276 276 277 276 265 266 272 272 252 245 257 265 263 246 218 210 202 193 191 192 185 171 162 157 152 151 148 149 148 146 141 135
38 242 229 204 211 237 254 270 273 280 261 261 281 278 279 264 260 253 249 261 255 253 246 245 230 205 207 209 192 181 186 181 178 175 167 158 153 150 146 144 142 142 139 131
209 191 217 197 196 226 237 241 260 259 299 278 294 285 268 257 244 247 240 238 247 239 243 228 198 207 204 206 195 185 181 181 179 173 163 153 148 141 139 143 141 138 137 129
250 247 234 193 208 190 257 200 238 255 251 258 142 288 259 282 282 243 246 237 235 224 221 214 196 194 208 200 198 191 183 183 179 173 166 162 155 150 160 152 144 138 133 126
223 181 214 228 230 170 252 181 212 230 239 269 237 277 288 236 268 261 248 232 225 216 213 202 196 200 204 193 186 188 183 184 180 175 171 165 156 161 155 148 143 139 130 123
240 188 201 212 230 198 166 231 252 247 234 247 225 203 271 240 240 234 239 236 226 225 208 202 190 174 180 184 178 179 178 180 179 178 175 174 168 155 150 149 143 137 131 121
233 238 208 213 190 193 217 199 237 222 211 247 177 211 245 252 278 253 255 247 235 227 191 170 162 162 162 174 175 175 177 172 177 178 178 174 167 163 160 155 149 142 133 122
232 287 209 186 212 188 198 197 221 239 230 258 221 241 250 225 241 253 251 246 265 217 185 184 180 171 169 169 170 169 172 168 174 175 171 170 166 161 156 153 146 138 135 126
222 260 295 200 210 186 177 212 222 266 230 247 242 280 289 252 253 256 250 235 232 202 178 182 175 175 165 164 168 168 168 164 167 166 162 159 157 154 150 146 142 137 131 125
264 271 201 199 202 249 200 299 169 205 237 243 254 270 245 316 321 316 272 245 234 189 174 172 174 162 160 158 160 167 168 161 159 158 155 152 151 150 146 143 138 137 129 124
199 227 340 152 212 192 197 196 213 240 198 214 274 264 211 166 257 353 329 277 226 187 180 171 154 145 134 142 151 156 159 154 153 154 150 147 144 143 141 139 136 133 127 118
199 255 241 237 211 211 216 226 212 208 207 227 178 258 189 126 36 2 343 315 265 185 161 150 142 139 140 139 144 149 152 153 152 151 148 144 141 141 139 136 132 129 125 119
165 218 280 284 301 203 219 220 222 232 156 227 210 258 210 267 346 0 348 356 48 75 106 121 133 138 133 136 137 142 149 150 149 149 146 142 140 141 137 133 131 131 126 115
174 223 218 250 247 195 213 218 211 206 226 243 237 273 269 312 334 337 0 262 137 121 136 144 142 136 132 134 135 140 146 150 149 149 146 143 143 141 138 136 134 130 122 101
179 251 237 253 262 244 234 212 191 209 219 214 259 251 269 319 296 341 335 218 176 163 157 157 144 137 131 127 133 142 147 149 150 148 147 144 143 142 140 137 133 125 111 76
197 273 287 284 284 266 227 216 207 217 224 240 251 269 287 192 354 320 292 222 197 169 156 148 138 138 136 138 140 142 146 149 153 150 147 147 146 143 140 137 132 124 100 47
206 252 293 286 311 313 149 223 219 217 220 220 231 247 259 283 276 256 252 240 211 171 158 159 155 150 145 146 147 145 151 154 154 149 148 149 147 142 140 137 129 112 71 21
223 206 237 283 302 329 259 291 205 216 231 220 236 247 235 241 261 259 225 204 172 161 157 150 144 133 138 143 147 151 154 155 152 149 149 149 148 142 138 132 121 97 36 10
205 225 278 303 311 283 305 86 170 175 244 209 223 238 243 326 332 287 166 164 149 145 142 138 144 140 142 147 152 150 152 153 151 150 149 151 149 141 136 126 109 60 18 3
162 281 275 327 313 319 311 352 106 81 289 200 210 232 252 111 320 337 3 73 111 116 125 132 135 135 137 144 151 146 147 152 151 152 149 146 143 136 131 121 87 34 5 352
182 216 239 257 275 285 272 335 115 57 281 319 222 227 148 182 221 324 63 54 50 89 117 128 129 132 138 147 149 137 147 148 150 147 140 135 132 131 123 102 62 18 357 347
180 170 216 172 260 313 334 17 264 233 289 293 294 212 174 121 98 68 52 77 82 112 115 117 115 116 133 146 147 136 140 145 144 138 133 131 129 123 113 80 41 7 353 347
249 186 194 176 215 232 233 265 303 302 286 341 269 55 120 110 89 89 94 100 120 110 105 113 117 113 128 145 148 133 138 141 138 136 131 130 128 116 91 48 15 4 357 351
251 181 234 8 289 253 242 207 315 338 29 18 86 107 103 113 109 110 131 116 103 98 105 115 114 111 108 134 137 136 140 140 138 132 131 131 122 96 66 25 8 357 352 344
207 140 204 258 278 277 263 218 127 91 86 78 67 81 110 117 121 132 110 103 102 102 103 109 110 108 110 126 127 133 137 141 134 131 128 122 114 82 29 5 359 348 344 338
191 194 175 226 231 167 282 128 129 120 109 111 114 99 85 116 115 112 98 100 105 104 106 101 103 110 118 123 125 130 136 142 135 128 128 117 95 44 9 353 341 347 338 326